Fulton, NY

7:33 AM EDT on March 23, 2017 (GMT -0400)
Oswego County

Weather History for KFZY - August, 2014

Change the Weather History Date:

Saturday, August 23, 2014

  Actual Average (KSYR) Record (KSYR)
Temperature  
Mean Temperature 67 °F -  
Max Temperature 73 °F 76 °F 92 °F (1936)
Min Temperature 60 °F 55 °F 45 °F (1971)
Cooling Degree Days 2    
Growing Degree Days 17 (Base 50)    
Moisture  
Dew Point 61 °F    
Average Humidity 80    
Maximum Humidity 93    
Minimum Humidity 68    
Precipitation  
Precipitation 0.00 in - - ()
Sea Level Pressure  
Sea Level Pressure 30.08 in    
Wind  
Wind Speed 5 mph (ESE)    
Max Wind Speed 8 mph    
Max Gust Speed -    
Visibility 10 miles    
Events      
Averages and records for this station are not official NWS values.
T = Trace of Precipitation, MM = Missing Value Source: NWS Daily Summary

Daily Weather History Graph

Daily Weather History Graph

Search for Another Location

Airport or City:

Trip Planner

Search our weather history database for the weather conditions in past years. The results will help you decide how hot, cold, wet, or windy it might be!

Date:

Astronomy

Aug. 23, 2014 Rise Set
Actual Time 6:19 AM EDT 7:55 PM EDT
Civil Twilight 5:49 AM EDT 8:25 PM EDT
Nautical Twilight 5:12 AM EDT 9:02 PM EDT
Astronomical Twilight 4:33 AM EDT 9:41 PM EDT
Moon 4:32 AM EDT 6:39 PM EDT
Length of Visible Light 14h 36m
Length of Day
13h 36m
Waning Crescent, 3% of the Moon is Illuminated
Aug 23
Waning Crescent
Aug 25
New
Sep 2
First Quarter
Sep 8
Full
Sep 15
Last Quarter

Hourly Weather History & Observations

Time (EDT) Temp. Dew Point Humidity Pressure Visibility Wind Dir Wind Speed Gust Speed Precip Events Conditions
12:54 AM 64.9 °F 61.0 °F 87% 30.02 in 10.0 mi Variable 4.6 mph - N/A   Overcast
1:54 AM 64.9 °F 60.1 °F 84% 30.02 in 10.0 mi ESE 4.6 mph - N/A   Overcast
2:54 AM 64.9 °F 60.1 °F 84% 30.02 in 10.0 mi Variable 5.8 mph - N/A   Overcast
3:24 AM 64.9 °F 60.1 °F 84% 30.03 in 10.0 mi Variable 3.5 mph - N/A   Overcast
3:33 AM 64.9 °F 60.1 °F 84% 30.03 in 10.0 mi ESE 5.8 mph - N/A   Overcast
3:54 AM 64.9 °F 60.1 °F 84% 30.02 in 10.0 mi ESE 4.6 mph - N/A   Overcast
4:31 AM 64.9 °F 60.1 °F 84% 30.02 in 10.0 mi Variable 5.8 mph - N/A   Overcast
5:20 AM 64.9 °F 60.1 °F 84% 30.03 in 10.0 mi Variable 3.5 mph - N/A   Overcast
5:46 AM 64.9 °F 60.1 °F 84% 30.04 in 10.0 mi Variable 4.6 mph - N/A   Overcast
5:54 AM 64.9 °F 60.1 °F 84% 30.04 in 10.0 mi ESE 5.8 mph - N/A   Overcast
6:45 AM 64.9 °F 60.1 °F 84% 30.05 in 10.0 mi Variable 5.8 mph - N/A   Overcast
7:28 AM 64.9 °F 60.1 °F 84% 30.06 in 10.0 mi Variable 4.6 mph - N/A   Overcast
7:54 AM 64.9 °F 60.1 °F 84% 30.06 in 10.0 mi ESE 5.8 mph - N/A   Overcast
8:54 AM 66.0 °F 61.0 °F 84% 30.07 in 10.0 mi SE 8.1 mph - N/A   Overcast
9:21 AM 66.9 °F 61.0 °F 81% 30.07 in 10.0 mi ESE 3.5 mph - N/A   Overcast
9:54 AM 66.0 °F 61.0 °F 84% 30.07 in 10.0 mi Variable 4.6 mph - N/A   Overcast
10:45 AM 68.0 °F 63.0 °F 84% 30.09 in 10.0 mi SE 5.8 mph - 0.00 in   Overcast
10:54 AM 68.0 °F 63.0 °F 84% 30.09 in 10.0 mi Variable 5.8 mph - 0.00 in   Overcast
11:16 AM 69.1 °F 63.0 °F 81% 30.09 in 10.0 mi Variable 4.6 mph - N/A   Overcast
11:50 AM 69.8 °F 62.6 °F 78% 30.09 in 10.0 mi Variable 4.6 mph - N/A   Overcast
11:54 AM 70.0 °F 63.0 °F 78% 30.09 in 10.0 mi ESE 8.1 mph - N/A   Overcast
12:14 PM 70.0 °F 62.1 °F 76% 30.09 in 10.0 mi ESE 5.8 mph - N/A   Overcast
12:21 PM 70.0 °F 63.0 °F 78% 30.10 in 10.0 mi SE 6.9 mph - N/A   Overcast
12:29 PM 71.1 °F 63.0 °F 75% 30.09 in 10.0 mi Variable 4.6 mph - N/A   Overcast
12:54 PM 71.1 °F 62.1 °F 73% 30.09 in 10.0 mi Variable 5.8 mph - N/A   Overcast
1:14 PM 70.0 °F 62.1 °F 76% 30.09 in 10.0 mi ESE 6.9 mph - N/A   Overcast
1:35 PM 72.0 °F 63.0 °F 73% 30.09 in 10.0 mi Variable 5.8 mph - N/A   Overcast
1:54 PM 73.0 °F 63.0 °F 71% 30.09 in 10.0 mi ESE 6.9 mph - N/A   Overcast
2:54 PM 73.0 °F 63.0 °F 71% 30.10 in 10.0 mi Variable 5.8 mph - N/A   Overcast
3:54 PM 73.0 °F 63.0 °F 71% 30.11 in 10.0 mi Variable 3.5 mph - N/A   Overcast
4:54 PM 71.1 °F 62.1 °F 73% 30.12 in 10.0 mi ESE 5.8 mph - N/A   Mostly Cloudy
5:54 PM 73.0 °F 62.1 °F 68% 30.11 in 10.0 mi SSE 5.8 mph - N/A   Overcast
6:54 PM 71.1 °F 61.0 °F 70% 30.12 in 10.0 mi Variable 4.6 mph - N/A   Partly Cloudy
7:54 PM 68.0 °F 61.0 °F 78% 30.13 in 10.0 mi Calm Calm - N/A   Partly Cloudy
8:54 PM 66.9 °F 61.0 °F 81% 30.13 in 10.0 mi Calm Calm - N/A   Overcast
9:54 PM 64.0 °F 60.1 °F 87% 30.13 in 10.0 mi Calm Calm - N/A   Clear
10:54 PM 61.0 °F 57.9 °F 90% 30.14 in 10.0 mi Calm Calm - N/A   Clear
11:54 PM 60.1 °F 57.9 °F 93% 30.15 in 10.0 mi Calm Calm - N/A   Clear